Hourly Data Report for September 17, 2017

All times are specified in Local Standard Time (LST). Add 1 hour to adjust for Daylight Saving Time where and when it is observed.

PETAWAWA AWOS 2
ONTARIO

45°57'00.000" N
77°19'00.000" W
130.10 m
6106396
71625
YWA

Download Data

Hourly Data (September 2017)
Hourly Data Report for September 17, 2017
Temp Definition
°C
Dew Point Temp Definition
°C
Rel Hum Definition
%
Wind Dir Definition
10's deg

Wind Spd Definition
km/h
Visibility Definition
km
Stn Press Definition
kPa
Hmdx Definition


Wind Chill Definition


Weather Definition


TIME
00:00 16.5 15.9 96   0 14.5 100.42     LegendNANA
01:00 15.0 14.8 99   0 11.3 100.40     LegendNANA
02:00 14.7 14.4 98   0 11.3 100.40     LegendNANA
03:00 14.4 14.0 97   0 9.7 100.40     LegendNANA
04:00
05:00
06:00 14.1 14.1 100   0 0.0 100.50     LegendNANA
07:00 15.1 15.0 99 20 4 0.3 100.53     LegendNANA
08:00 16.7 16.6 99 8 4 0.6 100.53     LegendNANA
09:00 18.3 17.0 92 13 7 14.5 100.51     LegendNANA
10:00 21.5 17.7 79 12 7 14.5 100.47 27   LegendNANA
11:00 22.8 18.2 75 10 6 14.5 100.42 29   LegendNANA
12:00 25.4 19.3 69 9 7 14.5 100.39 32   LegendNANA
13:00 25.2 18.9 68   0 14.5 100.29 32   LegendNANA
14:00 27.6 17.2 53 18 13 14.5 100.26 33   LegendNANA
15:00 27.9 17.2 52 19 11 14.5 100.22 33   LegendNANA
16:00 27.2 17.4 55 19 7 14.5 100.19 33   LegendNANA
17:00 25.8 18.1 62 19 6 14.5 100.16 32   LegendNANA
18:00 23.0 19.7 82 19 6 14.5 100.16 30   LegendNANA
19:00 20.5 18.5 88 20 4 14.5 100.18 27   LegendNANA
20:00 19.1 17.6 91   0 14.5 100.22     LegendNANA
21:00 18.0 17.1 94   0 14.5 100.23     LegendNANA
22:00 17.4 16.4 94   0 14.5 100.24     LegendNANA
23:00 17.2 15.9 92   0 14.5 100.25     LegendNANA

Notes on Data Quality.

Legend

  • E = Estimated
  • M = Missing
  • NA = Not Available
  • ‡ = Partner data that is not subject to review by the National Climate Archives
Date modified: